Weather Roundup
Issued by NWS Chicago, IL

Home | Current Version | Previous Version | Text Only | Print | Product List | Glossary On
Versions: 1 2 3 4 5 6 7 8 9 10 11 12 13 14 15 16 17 18 19 20 21 22 23 24 25 26 27 28 29 30 31 32 33 34 35 36 37 38 39 40 41 42 43 44 45 46 47 48 49 50
000
NZUS59 KLOT 220509
HRRLOT

CHICAGO AREA WEATHER ROUNDUP
NATIONAL WEATHER SERVICE CHICAGO/ROMEOVILLE IL
1200 AM CDT SAT JUL 22 2017

NOTE: "FAIR" INDICATES FEW OR NO CLOUDS BELOW 12,000 FEET WITH NO
SIGNIFICANT WEATHER AND/OR OBSTRUCTIONS TO VISIBILITY.

* THESE STATIONS ARE NOT UNDER NWS QUALITY CONTROL. THEY ALSO MAY NOT
  REPORT WEATHER SUCH AS PRECIPITATION OR FOG.

ILZ005-006-012>014-019>023-220600-
NORTHEAST ILLINOIS

CITY           SKY/WX    TMP DP  RH WIND       PRES   REMARKS
OHARE          TSTM      75  71  87 SE6       29.85F
MIDWAY         TSTM      75  72  90 S12       29.86F FOG
AURORA         TSTM      71  71 100 W9        29.87F
LANSING*       TSTM      72  69  92 SE13      29.91R
JOLIET*        TSTM      73  71  95 W5        29.87F
WAUKEGAN       LGT RAIN  72  72 100 SE12G20   29.80F
DUPAGE AIRPORT LGT RAIN  70  70 100 S3        29.83F
WHEELING       LGT RAIN  74  74 100 SE13      29.84F
MORRIS*        TSTM      70  69  96 W9        29.88R
LEWIS AIRPORT* TSTM      71  69  92 S8        29.86F
NORTHERLY ISL    N/A     73  71  93 CALM        N/A
$$

WIZ051-052-058>065-066-070>072-220600-
SOUTHEAST WISCONSIN

CITY           SKY/WX    TMP DP  RH WIND       PRES   REMARKS
MILWAUKEE      CLOUDY    69  66  90 NE8       29.85F
KENOSHA*       LGT RAIN  72  70  93 E8        29.81F
RACINE*        CLOUDY    71  70  96 E9        29.85F
WAUKESHA       CLOUDY    63  61  94 NE6       29.86F
WEST BEND      LGT RAIN  63  61  94 NE5       29.88F
$$

INZ001>003-010>013-019-020-220600-
NORTHWEST INDIANA

CITY           SKY/WX    TMP DP  RH WIND       PRES   REMARKS
GARY*          CLOUDY    74  72  93 S7G17     29.90S
MICHIGAN CITY* NOT AVBL
RENSSELAER*    NOT AVBL
VALPARAISO     LGT RAIN  73  70  90 SE5       29.92S
$$

LMZ740>746-220600-
SOUTHERN LAKE MICHIGAN

STATION/POSITION TIME  SKY/WX   TEMP WIND        PRES    VSBY
                                AIR  DIR/SP/G
                 (UTC)          (F)  (DEG/KT/KT) (MB)    (MI)
HARRISON CRIB    0440            75  170/  7/  8   N/A
BURNHAM HARBOR   0500            74                N/A
CALUMET HARBOR   0442            74  170/  7/ 10 1011.6R
BURNS HARBOR     0440            73  190/ 17/ 21 1012.9S
MICHIGAN CITY    0440            73  150/  5/  7   N/A
$$

ABBREVIATIONS USED IN REMARKS
   TC - TEMPERATURE IN CELSIUS
  WCI - WIND CHILL INDEX
   HX - HEAT INDEX
  VSB - VISIBILITY
$$




USA.gov is the U.S. government's official web portal to all federal, state and local government web resources and services.